Weerstation Grootegast  Weerstation Grootegast


15 daagse weersverwachting Ålesund (NO)

  • Overzicht
  • Per uur
  • 15 dagen
  • Extra
  • Vergelijk
  • Kaarten
  • Dagkaart
  • Meer »
  • Info
  • Statistieken
  • Directe link
    Temp 6h Neerslag Wind  
 08:38     18:04    Daglengte: 9:26 Vandaag
20:00
11°
0.5 mm
8
 08:41     18:00    Daglengte: 9:19 Morgen
02:00
12°
5.6 mm
11
08:00
11°
15.5 mm
9
14:00
8.0 mm
8
20:00
30.2 mm
9
 08:43     17:57    Daglengte: 9:14 Maandag 22 Okt
02:00
26.4 mm
14
warningclass
08:00
40.2 mm
15
warningclass
14:00
32.7 mm
11
20:00
40.4 mm
7
 08:46     17:54    Daglengte: 9:08 Dinsdag 23 Okt
02:00
47.6 mm
6
08:00
60.9 mm
9
14:00
60.1 mm
8
Locatie info
Region: Møre og Romsdal
Latitude: 62.4715°N
Longitude: 6.1729°E
3 masl
Postcode: 6003
Temp/Neerslag /Baro Onweer/Dauwpunt
    Temp Baro 1h Neerslag Dauwpunt Wind UV Bewolking  
 08:38     18:04    Daglengte: 9:26 Vandaag
20:00
11°
1013.4 hPa 0.5 mm
82%
6.6°
8
Windvlaag: 12.8 m/s
81%
21:00
11°
1012.3 hPa 0.5 mm
82%
7.6°
8
Windvlaag: 13.4 m/s
81%
22:00
12°
1011.4 hPa 0.7 mm
82%
7.6°
10
Windvlaag: 16.1 m/s
81%
23:00
13°
1010.8 hPa
82%
8.8°
11
Windvlaag: 16.9 m/s
80%
 08:41     18:00    Daglengte: 9:19 Morgen
00:00
13°
1010.7 hPa 0.8 mm
82%
9.5°
11
Windvlaag: 17 m/s
78%
01:00
12°
1011.0 hPa 1.4 mm
82%
10.3°
11
Windvlaag: 16.9 m/s
81%
02:00
12°
1011.0 hPa 2.0 mm
82%
10.7°
11
Windvlaag: 16.3 m/s
81%
03:00
12°
1010.8 hPa 2.6 mm
82%
10.7°
10
Windvlaag: 15.5 m/s
81%
04:00
12°
1010.8 hPa 3.2 mm
82%
10.7°
10
Windvlaag: 14.4 m/s
77%
05:00
12°
1010.7 hPa 3.1 mm
82%
10.0°
10
Windvlaag: 16 m/s
75%
06:00
12°
1010.8 hPa 2.6 mm
82%
9.2°
10
Windvlaag: 14.5 m/s
78%
07:00
11°
1010.8 hPa 2.3 mm
82%
9.4°
9
Windvlaag: 13.9 m/s
81%
08:00
11°
1010.6 hPa 1.6 mm
82%
8.8°
9
Windvlaag: 12.8 m/s
81%
09:00
11°
1010.6 hPa
82%
8.5°
8
Windvlaag: 12.6 m/s
81%
10:00
11°
1010.7 hPa
82%
8.3°
8
Windvlaag: 11.7 m/s
81%
11:00
10°
1010.4 hPa
82%
7.5°
9
Windvlaag: 11.7 m/s
81%
12:00
10°
Voelt als: 5.8°
1010.5 hPa 2.0 mm
82%
6.2°
9
Windvlaag: 15.2 m/s
81%
13:00
Voelt als: 5.8°
1009.9 hPa 2.4 mm
82%
6.9°
8
Windvlaag: 13.7 m/s
81%
14:00
Voelt als: 5.7°
1009.1 hPa 3.5 mm
82%
6.9°
8
Windvlaag: 12.7 m/s
81%
15:00
Voelt als: 5.4°
1008.6 hPa 4.3 mm
82%
6.7°
8
Windvlaag: 12.6 m/s
81%
16:00
Voelt als: 5.2°
1007.7 hPa 3.8 mm
82%
6.4°
8
Windvlaag: 12.1 m/s
81%
17:00
Voelt als: 4.5°
1007.0 hPa 6.2 mm
82%
6.5°
9
Windvlaag: 14.2 m/s
81%
18:00
Voelt als: 5.0°
1006.7 hPa 5.1 mm
82%
6.8°
7
Windvlaag: 13.5 m/s
81%
19:00
Voelt als: 4.8°
1006.8 hPa 5.8 mm
82%
6.1°
7
Windvlaag: 11.8 m/s
81%
20:00
Voelt als: 4.4°
1007.1 hPa 5.0 mm
82%
4.7°
9
Windvlaag: 11.7 m/s
79%
21:00
Voelt als: 4.5°
1007.7 hPa
82%
3.8°
10
Windvlaag: 14.5 m/s
43%
22:00
Voelt als: 4.0°
1008.0 hPa 5.6 mm
82%
3.1°
10
Windvlaag: 14.8 m/s
53%
23:00
Voelt als: 3.6°
1007.7 hPa 5.9 mm
82%
3.3°
11
Windvlaag: 17.2 m/s
75% warningclass
 08:43     17:57    Daglengte: 9:14 Maandag 22 Okt
00:00
Voelt als: 3.0°
1007.1 hPa 4.4 mm
80%
4.5°
10
Windvlaag: 16.1 m/s
49%
01:00
Voelt als: 1.9°
1007.4 hPa 5.1 mm
82%
4.6°
14
Windvlaag: 23.7 m/s
77% warningclass
02:00
Voelt als: 2.7°
1007.4 hPa 5.3 mm
82%
2.1°
14
Windvlaag: 22 m/s
63% warningclass
03:00
Voelt als: 2.3°
1006.9 hPa 7.3 mm
82%
1.4°
14
Windvlaag: 21.8 m/s
59% warningclass
04:00
Voelt als: 1.0°
1006.5 hPa 5.8 mm
82%
4.0°
15
Windvlaag: 22.7 m/s
57% warningclass
05:00
Voelt als: 1.9°
1006.5 hPa 5.6 mm
82%
2.3°
16
Windvlaag: 23.8 m/s
67% warningclass
06:00
Voelt als: 2.0°
1007.1 hPa 7.4 mm
82%
2.4°
15
Windvlaag: 21.5 m/s
70% warningclass
07:00
Voelt als: 2.7°
1007.3 hPa 7.8 mm
82%
3.5°
15
Windvlaag: 20.8 m/s
73% warningclass
08:00
Voelt als: 1.6°
1007.9 hPa 6.3 mm
82%
3.9°
15
Windvlaag: 22.1 m/s
76% warningclass
09:00
Voelt als: 2.1°
1008.9 hPa 5.9 mm
82%
4.5°
14
Windvlaag: 21.3 m/s
77% warningclass
10:00
Voelt als: 3.0°
1009.8 hPa 5.7 mm
82%
3.4°
15
Windvlaag: 20.7 m/s
72% warningclass
11:00
Voelt als: 3.3°
1010.8 hPa 7.7 mm
82%
2.8°
13
Windvlaag: 19.1 m/s
64% warningclass
12:00
Voelt als: 3.2°
1011.6 hPa 5.6 mm
82%
2.8°
13
Windvlaag: 18.2 m/s
49% warningclass
13:00
Voelt als: 3.1°
1012.3 hPa 7.8 mm
82%
2.8°
12
Windvlaag: 17.9 m/s
63% warningclass
14:00
Voelt als: 3.1°
1012.6 hPa
82%
2.9°
11
Windvlaag: 16.4 m/s
23%
15:00
Voelt als: 3.3°
1012.4 hPa 8.2 mm
82%
2.5°
11
Windvlaag: 15.8 m/s
25%
16:00
Voelt als: 3.3°
1011.5 hPa 8.4 mm
82%
2.8°
10
Windvlaag: 14.8 m/s
76%
17:00
Voelt als: 2.8°
1009.8 hPa 6.1 mm
97%
2.8°
12
Windvlaag: 15.9 m/s
79%
18:00
Voelt als: 3.2°
1008.4 hPa
90%
3.0°
9
Windvlaag: 15.5 m/s
88%
19:00
Voelt als: 2.7°
1006.8 hPa 8.9 mm
100%
5.3°
8
Windvlaag: 14.3 m/s
87%
20:00
Voelt als: 2.9°
1005.3 hPa 8.7 mm
100%
4.8°
7
Windvlaag: 13.2 m/s
88%
21:00
Voelt als: 3.5°
1003.0 hPa 8.9 mm
100%
5.1°
5
Windvlaag: 10.8 m/s
88%
22:00
Voelt als: 4.4°
1000.6 hPa 9.1 mm
100%
5.4°
4
Windvlaag: 9.7 m/s
88%
23:00
Voelt als: 3.1°
998.7 hPa 9.7 mm
100%
5.2°
7
Windvlaag: 11.9 m/s
88%
 08:46     17:54    Daglengte: 9:08 Dinsdag 23 Okt
00:00
Voelt als: 3.6°
997.9 hPa 8.2 mm
100%
5.8°
9
Windvlaag: 13.6 m/s
88%
01:00
Voelt als: 4.5°
997.3 hPa 11.7 mm
100%
5.0°
6
Windvlaag: 13.4 m/s
88%
02:00
Voelt als: 4.8°
996.8 hPa
100%
5.1°
6
Windvlaag: 12 m/s
88%
03:00
Voelt als: 4.2°
996.9 hPa 10.9 mm
100%
5.1°
9
Windvlaag: 11.7 m/s
60%
04:00
Voelt als: 4.1°
997.2 hPa 10.6 mm
100%
4.4°
8
Windvlaag: 12.7 m/s
87%
05:00
Voelt als: 3.7°
997.6 hPa 10.6 mm
100%
3.4°
8
Windvlaag: 12 m/s
77%
06:00
Voelt als: 3.4°
997.9 hPa 7.6 mm
100%
3.7°
7
Windvlaag: 12.7 m/s
63%
07:00
Voelt als: 3.0°
998.2 hPa 10.7 mm
100%
0.8°
7
Windvlaag: 10.8 m/s
44%
08:00
Voelt als: 2.5°
998.9 hPa 10.5 mm
100%
0.1°
9
Windvlaag: 9 m/s
36%
09:00
Voelt als: 2.8°
1000.0 hPa 17.0 mm
100%
1.2°
9
Windvlaag: -6.5 m/s
43%
10:00
Voelt als: 2.7°
1000.8 hPa
99%
1.8°
8
Windvlaag: -5.8 m/s
47%
11:00
Voelt als: 2.9°
1001.5 hPa 10.6 mm
100%
2.4°
8
Windvlaag: -5 m/s
53%
12:00
Voelt als: 3.2°
1002.1 hPa 10.5 mm
100%
3.1°
7
Windvlaag: -5.1 m/s
60%
13:00
Voelt als: 3.1°
1002.8 hPa 11.0 mm
100%
3.7°
7
Windvlaag: -4.5 m/s
37%
14:00
Voelt als: 3.1°
1003.4 hPa 11.1 mm
100%
4.6°
8
Windvlaag: -2.6 m/s
60%
15:00
Voelt als: 3.1°
1003.6 hPa 17.3 mm
100%
4.3°
7
Windvlaag: 9.8 m/s
70%
16:00
Voelt als: 2.7°
1004.1 hPa 17.5 mm
100%
4.2°
7
Windvlaag: 10 m/s
76%
17:00
Voelt als: 2.8°
1004.5 hPa 17.7 mm
100%
4.2°
7
Windvlaag: 11.3 m/s
76%
18:00
Voelt als: 2.6°
1005.0 hPa 17.7 mm
100%
3.8°
6
Windvlaag: 13.4 m/s
59%
19:00
Voelt als: 2.6°
1005.6 hPa 17.7 mm
100%
3.8°
6
Windvlaag: 12 m/s
78%
Temp/Neerslag /Baro Onweer/Dauwpunt
    Temp Baro Neerslag Dauwpunt Wind Bewolking  
 08:38     18:04    Daglengte: 9:26 Vandaag
20:00
11°
1013.4 hPa 0.5 mm 6.6°
8
81%
23:00
13°
1010.8 hPa 1.3 mm 8.8°
11
80%
 08:41     18:00    Daglengte: 9:19 Morgen
02:00
12°
1011.0 hPa 4.3 mm 10.7°
11
81%
05:00
12°
1010.7 hPa 9.0 mm 10.0°
10
75%
08:00
11°
1010.6 hPa 6.5 mm 8.8°
9
81%
11:00
10°
1010.4 hPa   7.5°
9
81%
14:00
Voelt als: 5.7°
1009.1 hPa 8.0 mm 6.9°
8
81%
17:00
Voelt als: 4.5°
1007.0 hPa 14.4 mm 6.5°
9
81%
20:00
Voelt als: 4.4°
1007.1 hPa 15.8 mm 4.7°
9
79%
23:00
Voelt als: 3.6°
1007.7 hPa 11.5 mm 3.3°
11
75% warningclass
 08:43     17:57    Daglengte: 9:14 Maandag 22 Okt
02:00
Voelt als: 2.7°
1007.4 hPa 14.9 mm 2.1°
14
63% warningclass
05:00
Voelt als: 1.9°
1006.5 hPa 18.8 mm 2.3°
16
67% warningclass
08:00
Voelt als: 1.6°
1007.9 hPa 21.5 mm 3.9°
15
76% warningclass
11:00
Voelt als: 3.3°
1010.8 hPa 19.3 mm 2.8°
13
64% warningclass
14:00
Voelt als: 3.1°
1012.6 hPa 13.4 mm 2.9°
11
23%
17:00
Voelt als: 2.8°
1009.8 hPa 22.8 mm 2.8°
12
79%
20:00
Voelt als: 2.9°
1005.3 hPa 17.6 mm 4.8°
7
88%
23:00
Voelt als: 3.1°
998.7 hPa 27.7 mm 5.2°
7
88%
 08:46     17:54    Daglengte: 9:08 Dinsdag 23 Okt
02:00
Voelt als: 4.8°
996.8 hPa 19.9 mm 5.1°
6
88%
05:00
Voelt als: 3.7°
997.6 hPa 32.1 mm 3.4°
8
77%
08:00
Voelt als: 2.5°
998.9 hPa 28.8 mm 0.1°
9
36%
11:00
Voelt als: 2.9°
1001.5 hPa 27.6 mm 2.4°
8
53%
14:00
Voelt als: 3.1°
1003.4 hPa 32.6 mm 4.6°
8
60%
17:00
Voelt als: 2.8°
1004.5 hPa 52.6 mm 4.2°
7
76%
20:00
Voelt als: 2.4°
1006.2 hPa 53.2 mm 3.2°
6
86%
23:00
Voelt als: 3.6°
1007.6 hPa 0.5 mm 4.4°
6
87%
 08:49     17:51    Daglengte: 9:02 Woensdag 24 Okt
02:00
Voelt als: 3.8°
1008.6 hPa 1.0 mm 4.6°
6
87%
05:00
Voelt als: 4.0°
1009.6 hPa 0.4 mm 4.6°
6
88%
08:00
Voelt als: 4.1°
1010.4 hPa 0.7 mm 4.7°
6
89%
11:00
Voelt als: 4.5°
1011.4 hPa 0.4 mm 5.1°
5
89%
14:00
Voelt als: 4.9°
1012.1 hPa 0.6 mm 5.5°
5
90%
17:00
Voelt als: 4.4°
1010.9 hPa 1.1 mm 5.1°
5
91%
20:00
Voelt als: 4.0°
1009.7 hPa 3.2 mm 4.9°
5
92%
23:00
Voelt als: 4.2°
1008.2 hPa 3.1 mm 5.5°
5
91%
 08:52     17:48    Daglengte: 8:56 Donderdag 25 Okt
02:00
Voelt als: 4.2°
1006.8 hPa 4.1 mm 5.6°
6
90%
05:00
Voelt als: 4.4°
1004.8 hPa 1.1 mm 5.9°
6
91%
08:00
Voelt als: 4.5°
1002.7 hPa 2.9 mm 6.2°
6
91%
11:00
Voelt als: 4.7°
1003.0 hPa 2.1 mm 6.5°
7
91%
14:00
Voelt als: 5.0°
1003.3 hPa 4.2 mm 6.8°
7
91%
17:00
Voelt als: 4.7°
1002.7 hPa 1.6 mm 6.5°
6
91%
20:00
Voelt als: 4.5°
1002.1 hPa 5.6 mm 6.1°
5
91%
23:00
Voelt als: 4.7°
1001.0 hPa 1.9 mm 6.0°
4
91%
 08:55     17:45    Daglengte: 8:50 Vrijdag 26 Okt
02:00
Voelt als: 5.0°
999.9 hPa 3.9 mm 5.9°
4
90%
05:00
Voelt als: 4.8°
998.5 hPa 2.0 mm 5.8°
4
91%
08:00
Voelt als: 4.7°
997.0 hPa 3.8 mm 5.6°
4
91%
11:00
Voelt als: 4.6°
997.8 hPa 2.8 mm 5.8°
4
90%
14:00
Voelt als: 4.6°
998.5 hPa 5.8 mm 5.9°
4
88%
17:00
Voelt als: 4.3°
998.9 hPa 1.3 mm 5.2°
3
87%
20:00
Voelt als: 4.1°
999.4 hPa 4.0 mm 4.6°
2
86%
23:00
Voelt als: 3.3°
1001.2 hPa 1.7 mm 4.6°
4
89%
 08:58     17:42    Daglengte: 8:44 Zaterdag 27 Okt
02:00
Voelt als: 2.9°
1003.0 hPa 2.6 mm 4.7°
4
91%
05:00
Voelt als: 2.3°
1003.6 hPa 1.9 mm 3.6°
4
89%
08:00
Voelt als: 1.9°
1004.2 hPa 3.8 mm 2.6°
3
87%
11:00
Voelt als: 3.1°
1006.6 hPa 2.3 mm 3.4°
3
83%
14:00
Voelt als: 4.6°
1009.0 hPa 5.8 mm 4.1°
3
78%
17:00
Voelt als: 3.8°
1010.6 hPa   4.1°
3
81%
20:00
Voelt als: 3.2°
1012.2 hPa 2.4 mm 4.1°
3
84%
 09:01     17:39    Daglengte: 8:38 Zondag 28 Okt
02:00
Voelt als: 2.1°
1013.1 hPa 3.8 mm 2.3°
3
77%
07:00
Voelt als: 1.8°
1016.2 hPa 1.8 mm 1.3°
2
71%
13:00
Voelt als: 3.6°
1018.3 hPa 0.8 mm 2.3°
2
50%
19:00
Voelt als: 1.6°
1019.3 hPa   1.3°
3
85%
 09:04     17:36    Daglengte: 8:32 Maandag 29 Okt
01:00
Voelt als: -1.0°
1019.4 hPa 0.1 mm -0.4°
3
49%
07:00
Voelt als: -1.0°
1017.1 hPa 0.5 mm -0.5°
4
83%
13:00
Voelt als: 3.2°
1016.2 hPa 1.4 mm 1.2°
4
86%
19:00
Voelt als: 1.8°
1013.7 hPa 2.0 mm 0.5°
4
87%
 09:07     17:33    Daglengte: 8:26 Dinsdag 30 Okt
01:00
Voelt als: 5.1°
1000.8 hPa 0.5 mm 3.4°
10
1%
07:00
10°
Voelt als: 5.3°
990.7 hPa 12.3 mm 7.7°
14
1%
13:00
Voelt als: 0.7°
1013.3 hPa 1.6 mm 1.0°
4
58%
19:00
Voelt als: -0.4°
1013.1 hPa 2.0 mm -0.3°
3
56%
 09:10     17:30    Daglengte: 8:20 Woensdag 31 Okt
01:00
Voelt als: -0.8°
1012.5 hPa 1.8 mm -0.5°
4
59%
07:00
Voelt als: -1.0°
1012.3 hPa 1.6 mm -0.6°
3
56%
13:00
Voelt als: 0.4°
1011.6 hPa 0.7 mm 0.3°
4
53%
19:00
Voelt als: -1.0°
1009.5 hPa 1.4 mm -1.1°
3
55%
 09:13     17:27    Daglengte: 8:14 Donderdag 01 Nov
01:00
Voelt als: -0.8°
1007.7 hPa 1.6 mm -1.2°
3
60%
07:00
Voelt als: -0.4°
1006.1 hPa 1.2 mm -1.1°
2
63%
13:00
Voelt als: 1.7°
1005.0 hPa 1.2 mm 0.6°
2
58%
19:00
Voelt als: 0.5°
1003.1 hPa 1.6 mm -0.6°
2
59%
 09:15     17:24    Daglengte: 8:09 Vrijdag 02 Nov
01:00
Voelt als: -0.2°
1002.6 hPa 1.3 mm -1.2°
2
60%
07:00
Voelt als: 0.6°
1002.5 hPa 1.2 mm -1.3°
1
61%
13:00
Voelt als: 3.5°
1003.2 hPa 1.0 mm 0.6°
1
52%
19:00
1004.0 hPa 1.2 mm -1.0°
1
58%
 09:18     17:21    Daglengte: 8:03 Zaterdag 03 Nov
01:00
Voelt als: -0.5°
1004.2 hPa 0.7 mm -1.5°
2
54%
07:00
Voelt als: -1.2°
1003.7 hPa 0.7 mm -1.5°
3
54%
13:00
Voelt als: 1.7°
1003.7 hPa 0.5 mm 0.5°
2
50%
19:00
Voelt als: 0.7°
1002.9 hPa 0.5 mm -0.7°
2
58%
 09:21     17:18    Daglengte: 7:57 Zondag 04 Nov
01:00
Voelt als: 0.7°
1002.3 hPa 1.2 mm -0.0°
2
61%
07:00
Voelt als: 1.1°
1001.9 hPa 1.0 mm -0.2°
2
59%
13:00
Voelt als: 3.1°
1002.2 hPa 1.1 mm 1.3°
1
56%
  CAPE Lifted Index Hail Supercell Tornado SRH 3km CL BTM PRES CL TOP PRES Swiss DWD icon SMHI TS
 08:38     18:04    Daglengte: 9:26 Vandaag
20:00 0 J/kg 3.8 K 0 % 0 % 0 % 0 m²/s² 0 0 3.83 61
21:00 0 J/kg 2.4 K 0 % 0 % 0 % 0 m²/s² 0 0 2.67 61
22:00 0 J/kg 2.1 K 0 % 0 % 0 % 0 m²/s² 0 0 2.61 61
23:00 0 J/kg 2.4 K 0 % 0 % 0 % 0 m²/s² 0 0 3 61
 08:41     18:00    Daglengte: 9:19 Morgen
00:00 0 J/kg 2.7 K 0 % 0 % 0 % 0 m²/s² 0 0 2.7 61
01:00 0 J/kg 3.5 K 0 % 0 % 0 % 0 m²/s² 0 0 3.62 61
02:00 0 J/kg 4.9 K 0 % 0 % 0 % 0 m²/s² 0 0 4.93 61
03:00 4 J/kg 6.6 K 0 % 0 % 0 % 0 m²/s² 0 0 6.63 61
04:00 31 J/kg 7.4 K 0 % 0 % 0 % 0 m²/s² 0 0 7.61 63
05:00 46 J/kg 8.7 K 0 % 0 % 0 % 0 m²/s² 0 0 9 63
06:00 10 J/kg 10.8 K 0 % 0 % 0 % 0 m²/s² 0 0 11.04 63
07:00 117 J/kg 9.7 K 0 % 0 % 0 % 0 m²/s² 0 0 10 61
08:00 77 J/kg 10.6 K 0 % 0 % 0 % 0 m²/s² 0 0 10.93 61
09:00 109 J/kg 10.4 K 0 % 0 % 0 % 0 m²/s² 0 0 10.64 61
10:00 102 J/kg 11.7 K 0 % 0 % 0 % 0 m²/s² 0 0 11.88 61
11:00 26 J/kg 13.3 K 0 % 0 % 0 % 0 m²/s² 0 0 13.51 61
12:00 0 J/kg 12.7 K 0 % 0 % 0 % 0 m²/s² 0 0 12.94 61
13:00 0 J/kg 12.3 K 0 % 0 % 0 % 0 m²/s² 0 0 12.63 61
14:00 15 J/kg 12.0 K 0 % 0 % 0 % 0 m²/s² 0 0 12.45 61
15:00 118 J/kg 10.3 K 0 % 0 % 0 % 0 m²/s² 0 0 10.75 61
16:00 81 J/kg 8.7 K 0 % 0 % 0 % 0 m²/s² 0 0 9.18 61
17:00 89 J/kg 7.3 K 0 % 0 % 0 % 0 m²/s² 0 0 7.66 63
18:00 122 J/kg 5.6 K 0 % 0 % 0 % 0 m²/s² 0 0 6.11 63
19:00 58 J/kg 3.5 K 0 % 0 % 0 % 0 m²/s² 0 0 3.92 61
20:00 138 J/kg 2.7 K 0 % 0 % 0 % 0 m²/s² 0 0 5.19 61
21:00 131 J/kg 2.7 K 0 % 0 % 0 % 0 m²/s² 0 0 8.61 80
22:00 288 J/kg 0.2 K 0 % 0 % 0 % 0 m²/s² 0 0 1.88 80
23:00 30 J/kg 1.0 K 0 % 0 % 0 % 0 m²/s² 0 0 1.87 80
 08:43     17:57    Daglengte: 9:14 Maandag 22 Okt
00:00 433 J/kg -2.1 K 0 % 0 % 0 % 0 m²/s² 0 0 0.6 80
01:00 53 J/kg 1.5 K 0 % 0 % 0 % 0 m²/s² 0 0 1.95 80
02:00 159 J/kg 0.6 K 0 % 0 % 0 % 0 m²/s² 0 0 2.01 80
03:00 253 J/kg -0.5 K 0 % 0 % 0 % 0 m²/s² 0 0 1.21 95
04:00 292 J/kg -1.0 K 0 % 0 % 0 % 0 m²/s² 0 0 0.65 95
05:00 305 J/kg -1.5 K 0 % 0 % 0 % 0 m²/s² 0 0 0.39 80
06:00 283 J/kg -0.8 K 0 % 0 % 0 % 0 m²/s² 0 0 0.4 95
07:00 421 J/kg -1.7 K 0 % 0 % 0 % 0 m²/s² 0 0 -0.62 80
08:00 280 J/kg 0.3 K 0 % 0 % 0 % 0 m²/s² 0 0 2.37 80
09:00 277 J/kg 0.0 K 0 % 0 % 0 % 0 m²/s² 0 0 1.02 80
10:00 232 J/kg 0.0 K 0 % 0 % 0 % 0 m²/s² 0 0 0.93 80
11:00 156 J/kg 0.8 K 0 % 0 % 0 % 0 m²/s² 0 0 2.12 80
12:00 146 J/kg 0.8 K 0 % 0 % 0 % 0 m²/s² 0 0 3.89 80
13:00 258 J/kg -0.1 K 0 % 0 % 0 % 0 m²/s² 0 0 0.47 80
14:00 58 J/kg 2.3 K 0 % 0 % 0 % 0 m²/s² 0 0 2.99 80
15:00 166 J/kg 2.9 K 0 % 0 % 0 % 0 m²/s² 0 0 4.46 80
16:00 223 J/kg 2.6 K 0 % 0 % 0 % 0 m²/s² 0 0 6.53 80
17:00 105 J/kg 4.3 K 0 % 0 % 0 % 0 m²/s² 0 0 5.92 3
18:00 77 J/kg 4.6 K 0 % 0 % 0 % 0 m²/s² 0 0 5.02 3
19:00 82 J/kg 4.8 K 0 % 0 % 0 % 0 m²/s² 0 0 5.4 61
20:00 38 J/kg 5.7 K 0 % 0 % 0 % 0 m²/s² 0 0 6.21 61
21:00 2 J/kg 4.5 K 0 % 0 % 0 % 0 m²/s² 0 0 4.92 61
22:00 49 J/kg 3.6 K 0 % 0 % 0 % 0 m²/s² 0 0 4.02 61
23:00 61 J/kg 2.3 K 0 % 0 % 0 % 0 m²/s² 0 0 2.69 61
 08:46     17:54    Daglengte: 9:08 Dinsdag 23 Okt
00:00 111 J/kg 1.7 K 0 % 0 % 0 % 0 m²/s² 0 0 2.12 63
01:00 23 J/kg 2.0 K 0 % 0 % 0 % 0 m²/s² 0 0 2.39 63
02:00 56 J/kg 1.4 K 0 % 0 % 0 % 0 m²/s² 0 0 1.79 63
03:00 46 J/kg 2.2 K 0 % 0 % 0 % 0 m²/s² 0 0 2.62 80
04:00 71 J/kg 3.0 K 0 % 0 % 0 % 0 m²/s² 0 0 3.42 80
05:00 82 J/kg 4.5 K 0 % 0 % 0 % 0 m²/s² 0 0 5.22 80
06:00 68 J/kg 5.7 K 0 % 0 % 0 % 0 m²/s² 0 0 6.42 80
07:00 96 J/kg 6.3 K 0 % 0 % 0 % 0 m²/s² 0 0 8.28 80
08:00 108 J/kg 6.5 K 0 % 0 % 0 % 0 m²/s² 0 0 10.52 80
09:00 125 J/kg 7.0 K 0 % 0 % 0 % 0 m²/s² 0 0 12.37 3
10:00 129 J/kg 7.4 K 0 % 0 % 0 % 0 m²/s² 0 0 13.43 2
11:00 70 J/kg 8.8 K 0 % 0 % 0 % 0 m²/s² 0 0 15.01 80
12:00 62 J/kg 9.4 K 0 % 0 % 0 % 0 m²/s² 0 0 16.03 80
13:00 68 J/kg 9.8 K 0 % 0 % 0 % 0 m²/s² 0 0 16.91 80
14:00 91 J/kg 9.7 K 0 % 0 % 0 % 0 m²/s² 0 0 15.31 80
15:00 111 J/kg 9.9 K 0 % 0 % 0 % 0 m²/s² 0 0 14.64 80
16:00 110 J/kg 9.7 K 0 % 0 % 0 % 0 m²/s² 0 0 14.29 80
17:00 119 J/kg 9.6 K 0 % 0 % 0 % 0 m²/s² 0 0 14.1 80
18:00 90 J/kg 11.3 K 0 % 0 % 0 % 0 m²/s² 0 0 17.24 80
19:00 122 J/kg 12.3 K 0 % 0 % 0 % 0 m²/s² 0 0 18.87 80
Temp Baro Wind Neerslag
  EWN Forecast EWN WRFDA DWD ICON FMI HIRLAM MET Norway GFS
 08:38     18:04    Daglengte: 9:26 Vandaag
20:00 11.1° 1013.4 hPa 7.9 m/s 0.5 mm 10.8° 1010.8 hPa 12.2 m/s 1.6 mm 11.5° 1013.1 hPa 1.5 m/s -1.3 mm 10.8° 1013.9 hPa 10.3 m/s 0.0 mm 11.4° 1014.3 hPa 7.4 m/s 0.4 mm 10.8° 1014.0 hPa 8.0 m/s
23:00 12.7° 1010.8 hPa 10.9 m/s 1.3 mm 12.0° 1009.2 hPa 14.3 m/s 5.8 mm 12.6° 1009.9 hPa 3.1 m/s 0.9 mm 11.7° 1011.8 hPa 12.0 m/s 0.0 mm 13.0° 1012.0 hPa 10.4 m/s 0.7 mm 11.6° 1012.2 hPa 10.2 m/s
 08:41     18:00    Daglengte: 9:19 Morgen
02:00 12.2° 1011.0 hPa 10.8 m/s 4.3 mm 12.0° 1008.9 hPa 12.0 m/s 13.0 mm 12.4° 1009.6 hPa 3.0 m/s 4.9 mm 12.2° 1011.5 hPa 12.8 m/s 0.0 mm 12.0° 1011.3 hPa 10.1 m/s 2.5 mm 11.2° 1011.4 hPa 10.2 m/s
05:00 11.6° 1010.7 hPa 10.3 m/s 9.0 mm 11.4° 1009.2 hPa 9.9 m/s 23.3 mm 11.5° 1010.2 hPa 6.8 m/s 8.0 mm 12.1° 1011.6 hPa 11.3 m/s 0.0 mm 11.7° 1010.8 hPa 10.3 m/s 8.0 mm 10.9° 1010.7 hPa 9.2 m/s
08:00 11.1° 1010.6 hPa 8.6 m/s 6.5 mm 10.7° 1009.5 hPa 8.8 m/s 24.2 mm 11.1° 1010.5 hPa 6.0 m/s 6.3 mm 11.9° 1011.5 hPa 9.3 m/s 0.0 mm 11.3° 1010.4 hPa 8.3 m/s 0.7 mm 10.2° 1010.9 hPa 9.6 m/s
11:00 10.5° 1010.4 hPa 8.6 m/s 0.0 mm 8.9° 1009.1 hPa 10.0 m/s 26.5 mm 10.2° 1010.8 hPa 5.2 m/s 2.0 mm 11.3° 1011.7 hPa 9.8 m/s 0.0 mm 11.0° 1010.2 hPa 7.6 m/s 0.0 mm 9.8° 1010.1 hPa 8.7 m/s
14:00 9.3° 1009.1 hPa 8.2 m/s 8.0 mm 8.3° 1008.1 hPa 8.0 m/s 35.6 mm 9.5° 1009.8 hPa 6.2 m/s 2.9 mm 10.2° 1010.7 hPa 9.1 m/s 0.0 mm 7.9° 1009.0 hPa 8.0 m/s 3.1 mm 9.5° 1008.7 hPa 8.7 m/s
17:00 8.6° 1007.0 hPa 9.2 m/s 14.4 mm 8.8° 1006.3 hPa 10.0 m/s 56.1 mm 8.2° 1008.3 hPa 6.0 m/s 7.2 mm 9.0° 1008.8 hPa 9.2 m/s 0.0 mm 8.0° 1006.4 hPa 9.2 m/s 4.1 mm 8.6° 1007.7 hPa 8.6 m/s
20:00 8.5° 1007.1 hPa 9.5 m/s 15.8 mm 9.0° 1006.0 hPa 8.8 m/s 75.3 mm 7.5° 1008.2 hPa 3.3 m/s 6.3 mm 8.4° 1007.0 hPa 9.6 m/s 0.0 mm 8.7° 1006.9 hPa 10.4 m/s 5.8 mm 8.5° 1008.3 hPa 9.3 m/s
23:00 8.1° 1007.7 hPa 10.9 m/s 11.5 mm 7.2° 1006.2 hPa 12.2 m/s 77.3 mm 7.1° 1007.4 hPa 5.4 m/s 1.5 mm 7.7° 1008.5 hPa 5.9 m/s 0.0 mm 8.9° 1007.7 hPa 12.4 m/s 0.0 mm 8.0° 1008.7 hPa 13.2 m/s
 08:43     17:57    Daglengte: 9:14 Maandag 22 Okt
02:00 8.0° 1007.4 hPa 14.4 m/s 14.9 mm 7.4° 1005.4 hPa 14.6 m/s 88.5 mm 6.0° 1007.6 hPa 9.5 m/s 3.0 mm 7.9° 1008.4 hPa 10.0 m/s 0.0 mm 8.2° 1007.4 hPa 17.5 m/s 2.6 mm 7.9° 1008.7 hPa 16.0 m/s
05:00 7.7° 1006.5 hPa 16.3 m/s 18.8 mm 7.3° 1005.6 hPa 14.6 m/s 99.4 mm 5.6° 1007.1 hPa 10.2 m/s 3.3 mm 6.9° 1008.6 hPa 11.8 m/s 0.0 mm 8.1° 1006.1 hPa 19.4 m/s 1.7 mm 7.7° 1009.3 hPa 16.1 m/s
08:00 7.2° 1007.9 hPa 14.6 m/s 21.5 mm 7.3° 1007.1 hPa 11.6 m/s 103.4 mm 6.0° 1009.4 hPa 10.1 m/s 4.8 mm 8.6° 1008.1 hPa 12.7 m/s 0.0 mm 6.7° 1006.7 hPa 18.1 m/s 1.8 mm 7.8° 1009.9 hPa 14.1 m/s
11:00 8.3° 1010.8 hPa 13.4 m/s 19.3 mm 8.0° 1009.5 hPa 12.3 m/s 108.3 mm 6.3° 1012.5 hPa 9.0 m/s 3.2 mm 8.6° 1011.9 hPa 11.3 m/s 0.0 mm 8.5° 1010.2 hPa 15.1 m/s 1.3 mm 7.9° 1011.8 hPa 13.3 m/s
14:00 7.8° 1012.6 hPa 11.0 m/s 13.4 mm 6.3° 1010.1 hPa 8.1 m/s 112.6 mm 7.0° 1013.3 hPa 8.2 m/s 2.7 mm 8.0° 1014.6 hPa 9.9 m/s 0.0 mm 8.1° 1012.3 hPa 13.4 m/s 0.4 mm 8.0° 1012.6 hPa 13.8 m/s
17:00 7.7° 1009.8 hPa 11.8 m/s 22.8 mm 7.9° 1008.1 hPa 12.7 m/s 120.0 mm 7.3° 1009.9 hPa 7.2 m/s 1.1 mm 7.8° 1009.5 hPa 12.8 m/s 0.9 mm 8.1° 1010.5 hPa 14.2 m/s
20:00 6.9° 1005.3 hPa 7.1 m/s 17.6 mm 7.1° 1004.9 hPa 10.1 m/s 124.1 mm 6.9° 1004.0 hPa 3.4 m/s 0.7 mm 6.7° 1004.8 hPa 7.4 m/s 1.9 mm 7.2° 1007.0 hPa 9.2 m/s
23:00 7.1° 998.7 hPa 7.0 m/s 27.7 mm 8.3° 1000.1 hPa 8.4 m/s 131.2 mm 7.4° 996.0 hPa 4.3 m/s 1.5 mm 6.5° 997.9 hPa 7.5 m/s 2.2 mm 7.8° 1003.3 hPa 7.6 m/s
 08:46     17:54    Daglengte: 9:08 Dinsdag 23 Okt
02:00 8.0° 996.8 hPa 6.0 m/s 19.9 mm 8.3° 998.4 hPa 5.5 m/s 144.5 mm 6.4° 992.0 hPa 5.9 m/s 13.2 mm 9.0° 997.0 hPa 9.2 m/s 2.4 mm 8.2° 1000.5 hPa 6.1 m/s
05:00 7.7° 997.6 hPa 7.9 m/s 32.1 mm 8.2° 998.4 hPa 6.2 m/s 146.9 mm 7.6° 993.3 hPa 8.6 m/s 4.8 mm 7.8° 998.6 hPa 9.5 m/s 1.1 mm 8.9° 999.7 hPa 8.4 m/s
08:00 7.0° 998.9 hPa 8.6 m/s 28.8 mm 8.0° 998.1 hPa 7.8 m/s 151.8 mm 6.7° 997.9 hPa 7.6 m/s 2.4 mm 6.5° 999.7 hPa 8.7 m/s 0.0 mm 8.5° 999.9 hPa 9.6 m/s
11:00 7.0° 1001.5 hPa 7.6 m/s 27.6 mm 6.9° 999.8 hPa 7.4 m/s 152.5 mm 5.4° 1002.1 hPa 6.9 m/s 0.5 mm 7.1° 1001.5 hPa 7.5 m/s 6.7° 1001.8 hPa 8.0 m/s
14:00 7.2° 1003.4 hPa 7.8 m/s 32.6 mm 6.9° 1001.6 hPa 8.0 m/s 153.4 mm 5.5° 1004.4 hPa 8.3 m/s 2.2 mm 7.7° 1003.2 hPa 6.3 m/s 6.8° 1003.5 hPa 7.6 m/s
17:00 6.7° 1004.5 hPa 6.7 m/s 52.6 mm 6.4° 1002.8 hPa 8.4 m/s 154.3 mm 5.2° 1006.0 hPa 7.2 m/s 1.7 mm 7.3° 1004.4 hPa 5.9 m/s 6.9° 1005.6 hPa 8.7 m/s
20:00 6.1° 1006.2 hPa 5.8 m/s 53.2 mm 5.6° 1005.8 hPa 8.8 m/s 156.2 mm 4.7° 1008.8 hPa 5.0 m/s 1.8 mm 6.9° 1005.6 hPa 5.6 m/s 6.7° 1008.3 hPa 8.1 m/s
23:00 7.1° 1007.6 hPa 5.9 m/s 0.5 mm 7.2° 1007.4 hPa 5.7 m/s 6.2° 1010.2 hPa 7.2 m/s 0.5 mm
 08:49     17:51    Daglengte: 9:02 Woensdag 24 Okt
02:00 7.2° 1008.6 hPa 5.8 m/s 1.0 mm 7.3° 1008.3 hPa 5.8 m/s 6.1° 1011.7 hPa 6.2 m/s 1.0 mm
05:00 7.3° 1009.6 hPa 5.6 m/s 0.4 mm 7.4° 1009.2 hPa 5.7 m/s 6.1° 1013.0 hPa 4.8 m/s 0.4 mm
08:00 7.4° 1010.4 hPa 5.5 m/s 0.7 mm 7.5° 1010.2 hPa 5.5 m/s 6.1° 1013.2 hPa 5.8 m/s 0.7 mm
11:00 7.7° 1011.4 hPa 5.4 m/s 0.4 mm 7.8° 1011.2 hPa 5.3 m/s 6.2° 1013.8 hPa 6.5 m/s 0.4 mm
14:00 7.9° 1012.1 hPa 5.3 m/s 0.6 mm 8.1° 1012.1 hPa 5.2 m/s 6.3° 1012.4 hPa 6.7 m/s 0.6 mm
17:00 7.5° 1010.9 hPa 4.9 m/s 1.1 mm 7.5° 1011.0 hPa 4.8 m/s 6.4° 1009.8 hPa 6.8 m/s 1.1 mm
20:00 7.0° 1009.7 hPa 4.7 m/s 3.2 mm 7.0° 1010.0 hPa 4.3 m/s 7.4° 1006.2 hPa 9.7 m/s 3.2 mm
23:00 7.4° 1008.2 hPa 5.3 m/s 3.1 mm 7.2° 1008.6 hPa 4.8 m/s 9.5° 1003.3 hPa 11.4 m/s 3.1 mm
 08:52     17:48    Daglengte: 8:56 Donderdag 25 Okt
02:00 7.6° 1006.8 hPa 5.9 m/s 4.1 mm 7.4° 1007.2 hPa 5.2 m/s 9.4° 1002.2 hPa 13.5 m/s 4.1 mm
05:00 7.7° 1004.8 hPa 5.8 m/s 1.1 mm 7.6° 1005.0 hPa 5.2 m/s 8.6° 1002.2 hPa 12.3 m/s 1.1 mm
08:00 7.9° 1002.7 hPa 6.0 m/s 2.9 mm 7.8° 1002.8 hPa 5.3 m/s 8.4° 1001.7 hPa 13.6 m/s 2.9 mm
11:00 8.1° 1003.0 hPa 6.5 m/s 2.1 mm 8.2° 1003.1 hPa 5.9 m/s 8.1° 1001.3 hPa 13.7 m/s 2.1 mm
14:00 8.5° 1003.3 hPa 7.1 m/s 4.2 mm 8.5° 1003.5 hPa 6.5 m/s 8.2° 1001.2 hPa 13.4 m/s 4.2 mm
17:00 8.0° 1002.7 hPa 6.0 m/s 1.6 mm 8.0° 1002.8 hPa 5.7 m/s 8.2° 1002.1 hPa 9.3 m/s 1.6 mm
20:00 7.5° 1002.1 hPa 5.0 m/s 5.6 mm 7.5° 1002.0 hPa 4.8 m/s 7.9° 1003.5 hPa 7.1 m/s 5.6 mm
23:00 7.5° 1001.0 hPa 4.5 m/s 1.9 mm 7.5° 1000.8 hPa 4.4 m/s 7.2° 1004.3 hPa 5.2 m/s 1.9 mm
 08:55     17:45    Daglengte: 8:50 Vrijdag 26 Okt
02:00 7.5° 999.9 hPa 4.0 m/s 3.9 mm 7.6° 999.5 hPa 4.0 m/s 7.0° 1004.3 hPa 4.4 m/s 3.9 mm
05:00 7.3° 998.5 hPa 3.8 m/s 2.0 mm 7.3° 998.0 hPa 3.8 m/s 6.7° 1004.1 hPa 3.9 m/s 2.0 mm
08:00 7.1° 997.0 hPa 3.5 m/s 3.8 mm 7.1° 996.4 hPa 3.6 m/s 6.8° 1004.2 hPa 2.9 m/s 3.8 mm
11:00 7.2° 997.8 hPa 3.8 m/s 2.8 mm 7.2° 997.1 hPa 3.8 m/s 6.6° 1004.6 hPa 4.2 m/s 2.8 mm
14:00 7.3° 998.5 hPa 4.2 m/s 5.8 mm 7.4° 997.9 hPa 4.0 m/s 6.8° 1004.7 hPa 6.6 m/s 5.8 mm
17:00 6.6° 998.9 hPa 3.3 m/s 1.3 mm 6.7° 998.3 hPa 3.1 m/s 6.6° 1004.7 hPa 5.5 m/s 1.3 mm
20:00 5.9° 999.4 hPa 2.4 m/s 4.0 mm 5.9° 998.8 hPa 2.3 m/s 6.2° 1006.0 hPa 3.0 m/s 4.0 mm
23:00 6.0° 1001.2 hPa 3.7 m/s 1.7 mm 6.0° 1000.5 hPa 3.1 m/s 6.9° 1008.2 hPa 9.8 m/s 1.7 mm
 08:58     17:42    Daglengte: 8:44 Zaterdag 27 Okt
02:00 6.0° 1003.0 hPa 4.4 m/s 2.6 mm 6.0° 1002.3 hPa 4.0 m/s 6.2° 1010.6 hPa 8.7 m/s 2.6 mm
05:00 5.2° 1003.6 hPa 3.8 m/s 1.9 mm 5.2° 1002.8 hPa 3.2 m/s 6.2° 1012.3 hPa 9.8 m/s 1.9 mm
08:00 4.5° 1004.2 hPa 3.0 m/s 3.8 mm 4.3° 1003.3 hPa 2.4 m/s 6.6° 1013.6 hPa 10.2 m/s 3.8 mm
11:00 5.6° 1006.6 hPa 3.1 m/s 2.3 mm 5.5° 1005.8 hPa 2.5 m/s 6.6° 1014.5 hPa 10.2 m/s 2.3 mm
14:00 6.8° 1009.0 hPa 3.1 m/s 5.8 mm 6.7° 1008.4 hPa 2.6 m/s 7.8° 1016.0 hPa 8.7 m/s 5.8 mm
17:00 6.3° 1010.6 hPa 3.5 m/s 1.1 mm 6.2° 1009.8 hPa 3.0 m/s 7.3° 1018.9 hPa 9.1 m/s 1.1 mm
20:00 5.8° 1012.2 hPa 3.4 m/s 1.3 mm 5.7° 1011.3 hPa 3.3 m/s 6.8° 1022.3 hPa 4.4 m/s 1.3 mm
 09:01     17:39    Daglengte: 8:38 Zondag 28 Okt
02:00 4.6° 1013.1 hPa 2.8 m/s 3.2 mm 4.4° 1011.9 hPa 2.4 m/s 6.3° 1025.9 hPa 7.7 m/s 3.2 mm
07:00 3.9° 1016.2 hPa 2.3 m/s 1.1 mm 3.7° 1015.2 hPa 2.3 m/s 5.6° 1027.3 hPa 1.8 m/s 1.1 mm
13:00 5.4° 1018.3 hPa 2.3 m/s 0.5 mm 5.4° 1017.5 hPa 2.1 m/s 5.8° 1027.3 hPa 4.7 m/s 0.4 mm
19:00 4.3° 1019.3 hPa 3.0 m/s 0.0 mm 4.2° 1018.9 hPa 2.6 m/s 5.0° 1024.1 hPa 7.9 m/s 0.0 mm
 09:04     17:36    Daglengte: 8:32 Maandag 29 Okt
01:00 2.4° 1019.4 hPa 3.4 m/s 0.1 mm 2.1° 1019.6 hPa 2.7 m/s 5.5° 1016.7 hPa 11.4 m/s 0.1 mm
07:00 2.8° 1017.1 hPa 4.2 m/s 0.3 mm 2.4° 1017.8 hPa 3.4 m/s 7.3° 1008.9 hPa 13.4 m/s 0.3 mm
13:00 6.0° 1016.2 hPa 3.8 m/s 1.4 mm 5.8° 1017.1 hPa 3.4 m/s 7.9° 1006.8 hPa 8.6 m/s 1.4 mm
19:00 4.8° 1013.7 hPa 3.7 m/s 1.1 mm 4.5° 1014.4 hPa 3.3 m/s 7.9° 1005.7 hPa 8.2 m/s 1.1 mm
 09:07     17:33    Daglengte: 8:26 Dinsdag 30 Okt
01:00 9.1° 1000.8 hPa 10.0 m/s 0.3 mm 9.1° 1000.8 hPa 10.0 m/s 0.3 mm
07:00 9.9° 990.7 hPa 14.5 m/s 11.7 mm 9.9° 990.7 hPa 14.5 m/s 11.7 mm
13:00 4.2° 1013.3 hPa 4.2 m/s 1.6 mm
19:00 2.8° 1013.1 hPa 3.3 m/s 2.0 mm
 09:10     17:30    Daglengte: 8:20 Woensdag 31 Okt
01:00 2.6° 1012.5 hPa 3.5 m/s 1.8 mm
07:00 2.3° 1012.3 hPa 3.4 m/s 1.6 mm
13:00 3.6° 1011.6 hPa 3.6 m/s 0.7 mm
19:00 2.3° 1009.5 hPa 3.2 m/s 1.4 mm
 09:13     17:27    Daglengte: 8:14 Donderdag 01 Nov
01:00 2.1° 1007.7 hPa 2.8 m/s 1.6 mm
07:00 2.0° 1006.1 hPa 2.3 m/s 1.2 mm
13:00 3.7° 1005.0 hPa 2.2 m/s 1.2 mm
19:00 2.5° 1003.1 hPa 2.0 m/s 1.6 mm
 09:15     17:24    Daglengte: 8:09 Vrijdag 02 Nov
01:00 2.1° 1002.6 hPa 2.1 m/s 1.3 mm
07:00 1.8° 1002.5 hPa 1.3 m/s 1.2 mm
13:00 3.5° 1003.2 hPa 0.7 m/s 1.0 mm
19:00 2.1° 1004.0 hPa 0.6 m/s 1.2 mm
 09:18     17:21    Daglengte: 8:03 Zaterdag 03 Nov
01:00 1.5° 1004.2 hPa 1.8 m/s 0.7 mm
07:00 1.6° 1003.7 hPa 2.5 m/s 0.7 mm
13:00 3.4° 1003.7 hPa 1.8 m/s 0.5 mm
19:00 2.3° 1002.9 hPa 1.6 m/s 0.5 mm
 09:21     17:18    Daglengte: 7:57 Zondag 04 Nov
01:00 2.6° 1002.3 hPa 1.9 m/s 1.2 mm
07:00 2.6° 1001.9 hPa 1.6 m/s 1.0 mm
13:00 3.9° 1002.2 hPa 1.3 m/s 1.1 mm
FMI Hirlam - 7.5 km EWN WRFDA - 12 km DWD ICON - 7 km GFS - 25 km Basiskaart






























































Updatetijd (Europe/Amsterdam) Resolutie Lengte Stap
FMI Hirlam 19:00, 01:00, 07:00, 13:00 7.5 km 49h 1h
EWN WRFDA 15:45, 21:45, 03:45, 09:45 12 km 73h 1h
DWD ICON 18:45, 00:45, 06:45, 12:45 7 km 75h 1h
GFS 15:15, 21:15, 03:15, 09:15 25 km 237h 3h
30+ mm
25-30 mm
20-25 mm
15-20 mm
10-15 mm
6-10 mm
4-6 mm
2-4 mm
1-2 mm
0.5-1 mm
0.2-0.5 mm
0.1-0.2 mm
30+ mm
25-30 mm
20-25 mm
15-20 mm
10-15 mm
6-10 mm
4-6 mm
2-4 mm
1-2 mm
0.5-1 mm
0.2-0.5 mm
0.1-0.2 mm
Sneeuwval
Natte sneeuw
Hagel
Vorst
30+ mm
25-30 mm
20-25 mm
15-20 mm
10-15 mm
6-10 mm
4-6 mm
2-4 mm
1-2 mm
0.5-1 mm
0.2-0.5 mm
0.1-0.2 mm
Sneeuwval
Natte sneeuw
Hagel
Vorst
Onweer
50 mm
40 mm
30 mm
26 mm
22 mm
18 mm
14 mm
10 mm
9 mm
8 mm
7 mm
6 mm
5 mm
4.5 mm
4 mm
3.5 mm
3 mm
2.5 mm
2 mm
1.5 mm
1 mm
0.8 mm
0.6 mm
0.4 mm
0.2 mm
0.05 mm
35°
30°
25°
20°
15°
10°